www.pogodaiklimat.ru

Погода и климат >> Архив погоды >> Украина >> Купянск


ПОГОДА в Купянске

  • Прогноз погоды в Купянске
  • Монитор погоды в Купянске

АРХИВ ПОГОДЫ в Купянске

Время (UTC), дата Ветер
(напр.,м/с)
 
Видим.   Явления Облачность Т
(С)
Тd
(С)
f
(%)
Тe
(С)
Тes
(С)
Комфортность P
(гПа)
Po
(гПа)
Тmin
(С)
Tmax
(С)
R
(мм)
R24
(мм)
S
(см)
15 20.05 СВ 3 50 км 3/0
[Ci fib]
+24.4 +2.8 24 +24 +26 комфорт 1018.6 1009.0
18 20.05 СВ 2 10 км 4/0
[Ci fib]
+19.7 +6.0 41 +21 +21 комфорт 1019.1 1009.4 +25.0
21 20.05 штиль 0 10 км ясно +14.8 +5.0 52 +15 +15 1020.7 1010.7
00 21.05 штиль 0 10 км ясно +11.4 +6.3 71 +11 +11 1020.8 1010.7
03 21.05 штиль 0 20 км 3/0
[Ci fib]
+9.6 +6.6 82 +9 +10 1020.8 1010.7
06 21.05 ЮВ 3 20 км 3/0
[Cs]
+20.6 +1.9 29 +21 +28 комфорт 1020.4 1010.6 +8.5
09 21.05 В 3 50 км 3/0
[Cs]
+23.3 +1.0 23 +22 +36 комфорт 1019.5 1009.8
12 21.05 Ю 3 50 км 8/0
[Ac cast Cs]
+25.0 +1.5 21 +24 +32 комфорт 1018.2 1008.6
15 21.05 В 2 50 км 9/3 600 м
[Sc Ac trans Ci fib]
+24.3 +5.0 29 +24 +25 комфорт 1016.5 1006.9
18 21.05 штиль 0 10 км 9/8 1000 м
[Sc Ac lent]
+21.4 +9.4 46 +23 +23 комфорт 1016.4 1006.7 +25.2
21 21.05 В 3 10 км 10/10 600 м
[Sc]
+20.1 +9.6 51 +22 +22 комфорт 1016.0 1006.3
00 22.05 штиль 0 10 км 9/5 600 м
[Sc Ac trans]
+17.8 +8.9 56 +18 +18 1015.2 1005.4
03 22.05 штиль 0 50 км 9/3 600 м
[Cu Sc Ac As]
+16.8 +8.4 58 +17 +17 1014.1 1004.3
06 22.05 ЮВ 2 50 км 9/1 600 м
[Cu hum Ac und]
+19.6 +8.5 49 +21 +24 комфорт 1012.4 1002.7 +16.7
09 22.05 В 2 50 км 9/6 1000 м
[Cb cap Ac trans Cc]
+24.3 +10.4 41 +25 +30 комфорт 1011.1 1001.6
12 22.05 ЮЗ 3 10 км гроза без осадков 10/10 600 м
[Cb cap]
+18.9 +15.0 78 +20 +20 1010.6 1000.9
15 22.05 С 1 20 км {гроза} 9/4 1000 м
[Cu hum Ac As]
+19.8 +14.3 71 +23 +24 комфорт 1010.0 1000.3
18 22.05 Ю 1 10 км {гроза} 9/8 600 м
[Cb cap Ac trans]
+17.5 +14.9 85 +19 +19 1009.7 1000.0 +24.3 0.3
21 22.05 штиль 0 10 км 10/10 600 м
[Sc]
+15.6 +13.3 86 +15 +15 1009.3 999.5
00 23.05 штиль 0 10 км {ливн. осадки} 8/0
[Ac trans]
+15.6 +13.6 88 +15 +15 1008.5 998.7
03 23.05 штиль 0 4000 м дымка 9/4 600 м
[Sc Ac trans]
+14.6 +13.7 94 +14 +15 1008.1 998.3
06 23.05 ЮЗ 2 4000 м дымка 8/3 600 м
[Cu hum Ci fib]
+17.6 +13.0 74 +18 +24 1007.8 998.1 +14.6 0.0
09 23.05 Ю 2 50 км 8/8 600 м
[Cu med, cong]
+19.4 +12.3 63 +21 +25 комфорт 1004.8 995.2
12 23.05 З 2 50 км 8/8 600 м
[Cu med, cong]
+22.4 +11.7 51 +25 +27 комфорт 1007.0 997.4
15 23.05 ЮЗ 2 50 км 6/3 600 м
[Cu hum Ac As]
+22.9 +11.7 49 +25 +27 комфорт 1006.7 997.2
18 23.05 штиль 0 10 км 8/4 600 м
[Sc diur, vesp Ci]
+19.0 +11.8 63 +20 +20 1007.3 997.6 +22.9
21 23.05 штиль 0 10 км 8/0
[Ci fib]
+15.3 +10.8 75 +15 +15 1008.0 998.2
00 24.05 СЗ 1 10 км 5/0
[Ac lent]
+15.5 +10.8 74 +16 +16 1008.7 998.9
03 24.05 штиль 0 20 км {ливн. осадки} 8/0
[]
+15.0 +13.7 92 +15 +15 1007.7 997.9
06 24.05 ЮЗ 2 20 км {ливн. осадки} 3/0
[Cc]
+20.6 +15.2 71 +24 +33 комфорт 1008.2 998.6 +15.0 1
09 24.05 СЗ 1 50 км 8/8 600 м
[Cu hum]
+24.8 +15.0 54 +28 +32 жарко 1008.4 998.9
12 24.05 СВ 2 50 км 8/8 600 м
[Cb calv]
+27.0 +13.5 43 +29 +31 жарко 1007.3 997.9
15 24.05 З 1 20 км {гроза, ливн. осадки} 9/4 600 м
[Cb cap Ac lent Ci fib]
+20.0 +15.8 77 +24 +25 комфорт 1007.7 998.1
18 24.05 СЗ 1 10 км {гроза, ливн. осадки} 9/6 600 м
[Sc diur, vesp Ac lent Cs]
+19.2 +17.6 90 +22 +22 комфорт 1008.6 999.0 +27.8 4
21 24.05 С 1 10 км ясно +17.2 +14.9 86 +18 +18 1008.6 998.9
00 25.05 штиль 0 10 км 4/0
[Ac trans]
+16.0 +13.9 87 +16 +16 1007.9 998.1
03 25.05 штиль 0 10 км 8/1 600 м
[Sc Ac lent Ci]
+14.5 +12.7 89 +14 +15 1008.0 998.2
06 25.05 Ю 2 10 км 3/1 1000 м
[Cu hum Ac cast]
+21.3 +16.0 72 +25 +32 комфорт 1007.5 997.9 +14.2
09 25.05 Ю 3 10 км слаб. дождь 10/5 600 м
[Cu Sc Ac As]
+21.3 +13.9 63 +24 +26 комфорт 1008.2 998.6
12 25.05 Ю 2 10 км в посл. час дождь 9/3 600 м
[Sc Ac trans Cs]
+18.8 +14.5 76 +20 +25 1006.6 996.9
15 25.05 В 2 10 км в посл. час дождь 10/4 600 м
[Sc As trans]
+18.5 +16.0 85 +20 +20 1005.9 996.2
18 25.05 штиль 0 4000 м ливневой дождь 10/10 600 м
[Cb cap]
+16.3 +15.8 97 +16 +16 1005.8 996.1 +21.6 12
21 25.05 штиль 0 4000 м слаб. дождь 10/9 600 м
[Frnb As op]
+16.3 +15.8 97 +16 +16 1005.1 995.4
00 26.05 штиль 0 4000 м слаб. дождь 10/10 600 м
[Sc]
+16.2 +15.8 97 +16 +16 1003.9 994.2
03 26.05 штиль 0 4000 м слаб. дождь 10/9 600 м
[Frnb As op]
+16.0 +15.6 97 +16 +16 1004.0 994.3
06 26.05 З 1 4000 м слаб. дождь 10/9 600 м
[Frnb As op]
+17.4 +16.4 94 +18 +19 1004.6 994.9 +15.8 11
09 26.05 З 1 4000 м слаб. дождь 10/9 600 м
[Frnb As op]
+20.4 +14.8 70 +24 +24 комфорт 1004.8 995.2
12 26.05 З 2 4000 м слаб. дождь {гроза} 10/9 600 м
[Frnb As op]
+18.3 +16.6 90 +19 +20 1005.4 995.8
15 26.05 З 2 4000 м в посл. час ливневой дождь 10/10 600 м
[Cb cap]
+21.1 +15.2 69 +24 +24 комфорт 1006.6 997.0
18 26.05 Ю 1 4000 м дымка {ливн. осадки} 10/0
[Ac und]
+18.1 +16.4 90 +19 +19 1008.7 999.0 +21.1 4
21 26.05 штиль 0 4000 м дымка ясно +15.0 +13.4 90 +15 +15 1010.2 1000.4
00 27.05 штиль 0 4000 м дымка ясно +15.2 +13.8 91 +15 +15 1011.3 1001.5
03 27.05 штиль 0 20 км 3/0
[Ac lent Ci fib]
+15.6 +12.7 83 +15 +17 1013.1 1003.3
06 27.05 С 1 50 км ясно +19.0 +11.3 61 +21 +32 комфорт 1014.6 1004.9 +13.9
09 27.05 С 3 50 км ясно +21.7 +8.1 42 +23 +37 комфорт 1015.4 1005.7
12 27.05 ЮЗ 2 50 км 3/3 600 м
[Cu hum]
+25.0 0.0 19 +23 +32 комфорт 1015.4 1005.8

 

Местоположение метеостанции Купянск (Харьковская область, Украина): широта 49.63 долгота 37.70 высота над уровнем моря 83 м.

В архиве по умолчанию представлена погода в Купянске за последнюю неделю. Архивные данные за месяц целиком и за предыдущие месяцы, начиная с января 2011 года, Вы можете получить, выбрав интересующий диапазон дат из раскрывающегося списка и нажав кнопку "Ввод!".


*Определитесь, кто Вы:
робот инопланетянин человек

Внимание! Время в таблицах - всемирное. Для получения местного времени необходимо прибавить поправку, которая равна 2 ч.

Смотрите также архив погоды в соседних городах и на ближайших метеорологических станциях:

Погода в Сватово (Луганская область, Украина) (41 км)
Погода в Новопскове (Луганская область, Украина) (46 км)
Погода в Троицком (Луганская область, Украина) (51 км)
Погода в Великом Бурлуке (Харьковская область, Украина) (54 км)
Погода в Изюме (Харьковская область, Украина) (58 км)
Погода в Валуйках (Белгородская область, Россия) (72 км)
Погода в Комсомольском (Донецкая область, Украина) (84 км)
Погода в Артемовске (Донецкая область, Украина) (116 км)
Погода в Харькове (Харьковская область, Украина) (119 км)
Погода в Новом Осколе (Белгородская область, Россия) (125 км)

Пояснения к столбцам:

Ветер - указаны скорость ветра в м/с - средняя за 10 мин, порывы в срок и между сроками (в фигурных скобках) и направление, откуда дует ветер: С - северный, СВ - северо-восточный, В - восточный, ЮВ - юго-восточный, Ю - южный, ЮЗ - юго-западный, З - западный, СЗ - северо-западный.
Видимость - горизонтальная дальность видимости в метрах или километрах. При видимости от 1 до 10 км при отсутствии осадков обычно наблюдается дымка, при ухудшении видимости до 1 км и менее - туман. В сухую погоду видимость может ухудшаться дымом, пылью или мглою.
Явления - указаны атмосферные явления, наблюдавшиеся в срок или в последний час перед сроком; фигурными скобками обозначены явления, наблюдавшиеся между сроками (за 1-3 часа до срока); квадратными скобками обозначены град или гололедные отложения с указанием их диаметра в мм.
Облачность - указаны через наклонную черту общая и нижняя облачность в баллах и высота нижней границы облаков в метрах; квадратными скобками обозначены формы облаков: Ci - перистые, Cs - перисто-слоистые, Cc - перисто-кучевые, Ac - высококучевые, As - высокослоистые, Sc - слоисто-кучевые, Ns - слоисто-дождевые, Cu - кучевые, Cb - кучево-дождевые. Подробнее классификацию облаков см. в Атласе облаков (PDF).
T - Температура воздуха - температура, измеренная на высоте 2 м над землей.
Td - Температура точки росы - температура, при понижении до которой содержащийся в воздухе водяной пар достигнет насыщения.
f - Относительная влажность воздуха - влажноcть воздуха, измеренная на высоте 2 м над землей.
Te - Эффективная температура - температура, которую ощущает одетый по сезону человек в тени. Характеристика душности погоды. При расчете учитывается влияние влажности воздуха и скорости ветра на теплоощущения человека.
Tes - Эффективная температура на солнце - температура, которую ощущает человек, с поправкой на солнечный нагрев. Характеристика знойности погоды. Зависит от высоты солнца над горизонтом, облачности и скорости ветра. Ночью, в пасмурную погоду, а также при ветре 12 м/с и более поправка равна нулю.
P - Атмосферное давление - приведенное к уровню моря атмосферное давление.
Po - Атмосферное давление - измеренное на уровне метеостанции атмосферное давление.
Tmin - Минимальная температура - минимум температуры воздуха на высоте 2 м над землей.
Tmax - Максимальная температура - максимум температуры воздуха на высоте 2 м над землей.
R - Количество осадков - Количество выпавших осадков за период времени, мм. При наведении курсора мыши на число - период времени, за который выпало указанное количество осадков.
R24 - Количество осадков - Количество выпавших осадков за 24 часа, мм.
S - Снежный покров - Высота снежного покрова, см. При наведении курсора мыши на число - состояние снежного покрова и степень покрытия местности в баллах.